GFSSW_250_spd_144.txt.gz
Wind_Speed
30 28 31 30 29 32 39 36 39 38 39 37 37 35 40 33 21 20 29 30 28 29 32 33 58 55 44 42 42 46 45 46 50 47 40 43 42 43 40 32 31 33 31 34 34
32 29 28 28 29 36 42 37 38 38 36 37 36 37 32 30 32 22 17 27 29 25 31 32 27 31 29 41 37 41 47 49 43 38 44 46 49 45 34 31 31 30 31 30 31
33 30 32 31 34 37 42 38 37 35 35 36 36 36 34 32 35 25 23 18 30 30 29 34 38 30 27 34 41 45 42 44 44 46 42 47 45 37 31 30 30 28 26 31 32
40 38 34 36 37 40 41 38 36 36 36 36 36 35 33 31 32 31 29 23 20 22 34 33 38 42 36 35 42 45 47 44 45 46 50 38 36 32 32 31 29 27 30 31 36
43 41 35 36 38 40 39 38 36 35 39 38 37 36 33 32 31 34 29 27 21 19 26 30 37 37 40 43 47 44 47 48 45 45 35 33 32 33 32 29 27 26 28 34 40
45 43 39 36 40 43 42 39 37 37 36 39 39 38 36 32 31 34 33 26 24 21 18 20 22 26 39 35 40 44 40 39 40 32 31 32 32 33 32 26 24 27 29 37 42
49 44 42 42 44 43 44 41 38 38 39 38 41 40 39 36 29 32 32 29 24 22 20 21 21 23 25 28 27 30 31 31 30 31 31 31 33 31 32 26 25 28 34 38 47
50 49 46 46 46 45 45 46 43 41 43 41 42 41 42 37 34 30 31 31 29 27 21 20 21 22 23 27 25 31 32 31 28 31 29 32 32 31 33 27 25 30 35 40 48
54 54 53 52 51 51 52 52 50 48 49 47 43 45 46 41 38 33 31 31 30 31 30 24 19 19 24 27 30 29 31 28 30 31 29 31 32 30 33 29 28 32 34 41 49
62 62 61 60 58 58 58 56 52 52 53 51 48 47 47 45 39 35 35 33 33 33 31 24 20 19 18 28 29 29 31 29 31 30 31 31 33 32 32 34 34 35 37 43 49
67 68 68 67 62 61 64 61 57 54 57 55 55 56 50 50 45 42 40 37 37 35 33 26 25 22 18 21 29 29 33 32 32 32 32 30 31 33 33 33 37 41 34 43 50
72 74 72 70 69 73 72 70 66 60 58 62 60 58 59 54 52 46 44 45 42 39 33 32 28 28 23 23 22 27 32 34 33 33 32 31 31 29 30 32 32 33 34 42 48
75 78 81 82 81 79 78 78 72 66 61 70 67 62 63 57 57 55 48 47 46 41 39 32 32 32 26 25 23 24 30 35 35 32 32 30 33 34 31 34 32 30 33 40 45
86 87 89 91 89 88 88 83 82 82 72 68 73 72 69 62 58 62 54 53 47 47 47 36 39 33 29 30 24 24 26 34 34 34 32 33 32 30 32 27 27 30 31 38 44
96 97 95 98 94 93 94 91 89 86 81 80 73 74 79 74 67 69 64 62 57 54 51 45 41 38 35 34 31 27 26 30 35 35 35 37 33 34 32 27 28 27 30 36 41
96 99 98 97 100 102 101 98 97 93 80 84 83 83 77 75 76 70 70 67 65 60 54 52 45 44 41 36 37 33 27 29 35 36 38 36 31 32 32 28 27 28 30 35 40
104 103 104 102 101 102 105 108 105 93 94 98 88 81 84 79 79 75 77 71 70 68 61 60 53 46 45 39 39 40 32 28 34 36 39 40 33 30 31 31 30 28 28 34 40
105 105 106 106 106 107 108 104 100 91 92 99 99 90 87 84 81 82 81 79 75 73 70 66 58 55 52 48 43 39 40 35 30 34 38 42 38 33 31 32 31 29 27 33 38
106 104 104 105 107 109 115 111 103 98 100 106 100 98 93 84 85 85 80 78 78 73 74 70 62 64 55 55 48 43 41 44 33 33 38 44 41 36 33 34 34 31 30 32 34
109 103 103 110 112 115 115 113 110 105 107 108 101 102 101 96 97 92 80 75 77 76 75 74 71 65 61 59 53 48 45 45 45 37 38 44 44 38 34 35 34 32 30 30 30
117 110 105 113 113 118 113 112 111 111 111 116 116 115 111 110 109 102 99 86 82 89 85 78 81 75 63 59 60 55 45 49 47 44 38 44 43 42 37 35 34 32 30 27 28
117 113 101 110 113 109 109 112 110 109 114 119 121 121 114 119 120 114 103 101 97 91 97 88 91 84 70 70 65 58 53 47 45 47 44 38 45 45 39 35 32 30 25 25 26
119 113 106 119 115 113 120 119 119 120 125 131 134 124 120 113 111 107 107 107 105 98 97 98 97 87 79 74 67 59 58 53 51 50 45 39 46 48 42 36 33 29 25 24 25
116 108 105 111 113 107 109 110 104 109 113 112 111 109 103 100 102 100 103 110 109 105 103 106 100 89 82 72 75 73 66 63 57 51 53 44 44 49 47 39 35 30 28 26 24
114 107 105 105 105 104 103 103 97 101 101 103 100 92 96 94 91 91 94 99 99 101 103 104 102 93 87 87 80 79 70 66 54 53 50 56 43 49 49 44 38 33 30 28 25
110 105 101 96 97 100 95 91 93 90 97 92 84 84 86 82 81 84 88 92 91 93 95 97 92 96 95 94 88 81 75 66 58 57 54 52 49 50 51 47 41 36 32 29 25
100 100 97 85 91 90 87 83 89 89 85 80 77 77 76 81 81 75 83 81 81 85 88 90 88 96 93 93 94 88 69 69 65 63 58 50 61 48 51 48 46 40 35 32 29

GFSSW_250_spd_147.txt.gz
Wind_Speed
33 38 42 33 31 31 34 36 38 37 35 36 34 33 36 35 33 30 32 25 20 22 25 34 38 39 32 40 35 38 37 33 44 42 40 43 42 42 40 37 41 42 40 30 25
36 43 40 36 38 36 34 34 38 36 35 35 33 32 32 33 34 32 33 27 23 17 28 28 33 39 30 29 33 28 29 39 42 45 44 45 40 42 41 43 48 46 32 29 27
43 43 41 40 39 36 33 33 33 34 34 33 35 35 32 34 30 30 34 32 27 24 21 25 28 30 32 30 29 29 30 43 41 43 44 42 41 43 42 43 43 38 30 28 26
42 44 42 44 43 37 31 34 37 35 33 33 32 33 36 35 34 29 28 30 32 30 27 20 26 33 38 37 35 35 33 38 39 41 44 45 42 45 47 49 38 32 31 31 28
46 48 44 45 39 36 36 36 37 37 33 34 33 32 34 35 35 31 28 26 26 28 26 23 19 27 39 41 40 40 41 43 45 46 51 50 42 43 42 36 33 30 30 28 29
51 48 45 43 44 41 40 41 41 38 37 37 36 36 36 39 37 30 32 26 25 22 24 27 24 22 24 36 41 45 45 47 47 48 50 48 42 40 34 33 32 33 30 27 32
52 49 51 46 48 48 45 45 44 43 43 42 41 41 41 38 37 35 34 30 29 25 23 25 26 29 24 27 28 38 41 37 36 34 36 36 35 33 34 31 32 32 29 30 32
51 52 54 56 57 56 53 51 52 50 47 48 45 44 46 43 37 37 38 33 30 28 24 22 26 26 26 24 28 33 32 29 29 34 29 31 34 34 33 31 33 30 32 32 34
58 58 57 57 59 59 55 55 55 55 51 48 47 47 51 49 46 43 41 45 38 31 28 26 27 27 25 26 23 28 31 29 29 31 32 33 34 32 32 33 31 33 35 35 37
65 66 66 65 62 64 66 65 61 58 55 54 55 52 52 54 49 50 48 45 47 39 37 29 30 29 26 28 29 20 29 28 27 28 28 32 33 33 32 33 33 34 35 36 43
65 68 71 70 66 70 75 74 69 61 62 64 61 60 60 56 54 55 51 50 48 44 39 35 33 30 28 29 29 26 20 31 31 27 29 33 32 34 32 32 33 35 35 38 38
72 68 72 71 71 77 77 81 78 72 69 71 71 63 64 62 64 67 59 55 50 50 44 37 38 33 30 32 30 28 21 24 33 32 28 35 35 32 33 32 33 32 33 34 35
79 79 76 77 81 83 85 84 83 79 78 82 77 73 75 67 72 73 67 64 57 52 51 44 39 39 35 33 32 31 25 21 26 28 30 32 36 34 33 34 33 33 32 30 35
85 84 91 96 92 89 92 92 92 85 81 82 84 83 79 74 70 72 67 68 65 61 60 46 50 42 41 39 36 34 27 24 22 24 31 30 32 36 32 32 30 31 32 30 34
97 99 99 96 101 104 105 97 95 93 86 83 83 80 82 82 78 76 72 68 68 71 65 49 50 51 45 46 41 39 34 30 24 21 27 31 27 38 33 33 33 34 33 31 36
104 107 108 98 99 102 109 103 99 98 93 92 89 88 85 79 80 79 78 74 73 67 69 57 56 52 52 52 45 41 39 38 28 21 26 30 28 38 36 35 34 35 32 31 32
108 106 105 105 104 101 101 100 104 97 96 99 95 92 87 85 83 78 74 72 72 72 68 70 64 58 53 54 51 46 44 39 34 26 26 30 32 37 34 36 33 31 30 30 33
110 106 108 104 101 100 98 99 98 95 97 102 101 95 93 88 85 82 81 76 71 73 75 75 69 65 60 55 60 49 45 44 39 33 26 26 32 36 36 34 34 31 30 30 35
114 110 107 109 104 101 103 99 95 99 102 103 102 103 96 92 87 84 81 78 75 76 76 75 71 71 67 59 58 57 47 53 39 39 37 33 26 34 39 35 36 35 31 32 32
115 110 102 104 108 107 103 95 98 105 109 108 107 106 103 99 98 95 88 80 82 78 78 73 73 71 68 66 60 58 58 52 48 43 39 39 30 29 37 38 37 36 31 29 30
108 104 100 103 104 103 102 99 100 109 115 113 113 111 107 105 104 102 95 95 92 88 85 79 81 74 71 65 61 62 61 56 53 46 42 43 35 35 31 37 38 36 33 27 27
109 102 100 101 105 98 96 101 103 103 113 116 113 115 110 112 106 107 104 96 95 94 94 94 90 80 77 70 71 68 63 59 51 51 48 44 40 40 35 34 37 36 33 26 23
112 100 98 103 98 100 94 96 101 102 104 111 116 117 118 114 110 107 105 106 102 100 98 99 96 92 85 80 72 70 68 65 56 58 49 46 43 42 40 36 34 37 34 27 22
111 100 93 95 96 95 93 91 89 94 101 104 106 109 112 112 110 108 111 110 112 107 107 104 99 95 85 85 83 84 79 75 69 63 55 47 51 44 41 38 33 35 35 29 22
107 95 89 83 88 92 88 86 88 86 93 97 99 99 102 99 98 98 99 104 105 103 107 108 102 103 89 87 86 92 89 82 71 59 57 56 51 49 40 42 38 33 36 33 25
98 93 87 78 80 82 83 80 82 86 87 88 88 89 92 83 89 92 91 89 95 93 91 88 88 85 80 82 88 96 92 90 76 65 60 59 50 50 46 41 44 34 36 36 31
93 90 82 75 75 74 78 78 73 78 81 77 81 80 78 79 83 78 77 80 81 90 89 84 84 90 76 82 91 100 91 87 83 67 64 58 56 55 51 42 42 39 36 37 35

GFSSW_250_spd_150.txt.gz
Wind_Speed
32 29 37 33 36 38 40 39 37 29 30 35 37 36 30 30 32 30 30 28 26 22 20 20 23 28 34 31 41 30 35 38 35 44 40 39 36 36 45 46 42 32 33 39 41
31 33 34 36 39 41 42 40 36 31 32 33 34 34 33 26 29 32 28 27 27 25 24 20 19 28 31 36 37 35 41 33 34 35 36 37 37 42 41 40 38 35 33 37 38
35 36 36 37 39 39 40 38 33 31 34 33 33 32 35 30 24 29 32 23 23 26 27 23 23 21 27 35 31 31 27 37 37 31 39 40 43 47 43 40 42 40 43 41 36
40 40 41 44 45 39 39 34 34 35 36 36 34 37 35 35 27 30 31 28 27 27 24 25 23 18 22 29 30 35 31 32 35 40 41 41 47 45 46 42 41 41 43 39 32
43 45 45 47 44 41 41 40 40 39 38 38 39 39 41 39 37 33 31 28 31 28 27 23 22 22 24 21 24 34 41 37 38 35 46 50 44 46 46 49 51 47 42 37 35
46 47 47 43 41 42 43 46 45 46 44 40 42 43 45 42 41 38 37 31 30 34 30 26 23 22 23 24 19 21 34 41 41 43 45 47 47 54 48 53 49 50 34 35 37
48 49 46 44 46 49 50 50 52 52 52 46 44 46 47 43 42 39 41 41 36 34 38 32 24 25 24 23 21 22 24 31 36 43 51 50 51 49 45 45 39 34 33 34 35
50 52 48 51 54 55 56 56 56 56 53 50 52 53 55 44 48 48 43 43 41 40 37 37 32 27 27 24 25 23 23 24 33 36 43 41 42 34 39 37 33 32 33 33 34
53 52 54 56 56 64 64 62 60 60 58 54 55 57 62 57 50 52 49 47 48 44 44 39 34 34 31 25 28 24 24 24 25 33 36 36 38 31 36 34 32 32 33 33 34
53 58 61 61 64 65 66 68 64 62 64 61 60 61 64 63 60 59 58 54 51 50 49 44 41 42 32 27 31 25 26 25 28 27 35 35 37 28 31 35 34 33 32 34 33
55 59 61 64 65 68 73 68 70 69 67 67 67 68 69 69 67 67 68 62 58 56 56 50 50 51 36 34 33 28 29 27 27 26 32 36 41 31 28 32 35 34 32 33 31
62 67 70 69 73 76 76 74 79 75 75 75 78 78 81 74 76 76 71 69 64 64 61 59 58 52 43 39 36 35 31 29 30 26 27 33 39 37 31 33 35 34 33 32 32
73 77 85 88 89 85 84 83 85 85 82 83 88 83 86 83 84 86 76 73 70 66 65 61 58 55 50 47 42 39 36 27 31 30 23 27 37 39 32 33 34 34 33 31 35
80 84 86 93 97 100 97 94 93 85 86 84 83 86 87 89 89 90 83 79 71 68 67 61 62 58 55 51 49 44 42 35 30 29 30 24 35 40 32 35 34 34 31 32 33
95 100 107 108 107 107 105 106 95 91 87 85 85 82 86 89 89 92 89 83 76 71 68 58 65 60 54 55 55 55 50 40 35 31 32 34 23 43 34 34 34 34 31 33 35
107 106 114 116 112 115 113 113 102 102 93 89 85 85 84 87 90 88 80 87 81 77 69 66 65 63 62 58 56 55 48 47 42 34 36 36 26 41 35 33 34 34 31 32 35
111 115 119 124 120 120 120 115 105 103 98 94 91 85 82 83 84 81 81 76 79 79 77 72 68 64 62 62 57 56 53 52 49 36 39 37 31 33 36 35 34 33 31 32 33
122 121 122 122 121 120 118 116 108 100 98 95 92 91 82 80 83 84 86 82 78 72 72 73 67 66 63 61 65 65 62 52 47 44 39 38 37 37 33 36 38 36 33 33 32
128 128 123 125 126 121 122 113 105 99 97 95 92 92 90 87 86 88 87 90 87 83 78 74 66 65 67 66 64 63 63 59 53 47 40 44 42 40 33 32 37 37 34 34 32
134 126 130 127 125 121 114 104 99 99 101 99 94 95 90 91 91 92 91 91 89 89 82 76 76 66 67 65 62 59 62 59 55 45 45 45 43 44 41 35 33 34 34 34 33
134 134 134 129 117 108 104 101 99 98 99 103 99 96 93 93 92 92 97 95 92 90 89 85 78 75 79 67 63 61 57 58 59 53 47 46 47 48 47 41 35 30 31 33 32
137 137 129 118 106 103 101 98 97 95 97 101 99 97 95 94 92 95 94 100 99 96 92 93 86 78 78 76 72 67 63 68 63 56 48 48 47 51 50 47 42 36 27 30 30
133 120 113 110 103 102 98 91 88 88 92 96 97 97 94 90 93 89 93 96 101 104 102 96 93 85 80 83 80 74 69 65 63 59 51 49 47 55 55 49 47 40 31 26 28
120 110 105 106 104 99 92 84 81 81 84 92 92 93 90 87 89 86 89 92 97 101 105 106 100 94 87 83 91 87 79 76 71 67 58 50 55 57 57 53 46 43 36 29 25
115 107 104 97 94 90 86 80 80 78 80 82 87 85 84 82 84 84 86 89 93 97 101 105 105 101 97 91 93 89 86 80 76 70 66 60 59 60 58 55 48 44 39 32 26
109 103 97 88 85 80 78 77 79 75 71 72 75 81 76 70 74 78 83 84 86 89 91 91 93 98 96 98 101 98 92 87 81 74 63 60 55 61 61 56 53 51 41 35 32
101 94 88 80 79 72 77 75 70 69 65 65 70 68 68 63 68 72 76 76 77 84 87 89 90 91 82 96 101 98 90 89 85 79 72 63 65 72 64 56 58 50 43 35 37

GFSSW_250_spd_153.txt.gz
Wind_Speed
27 30 30 32 31 32 34 35 33 34 33 32 33 34 31 32 31 27 26 29 26 24 24 20 22 21 19 27 34 31 37 38 34 35 37 38 39 38 38 42 40 47 46 49 50
34 33 33 34 34 37 37 36 31 33 32 33 34 34 35 34 31 29 25 25 26 30 27 23 21 21 21 21 24 34 33 32 33 29 31 32 45 41 35 38 37 36 38 49 41
37 38 37 37 39 40 40 37 31 32 34 36 35 40 38 34 34 32 29 29 25 27 27 29 23 19 24 28 24 21 35 34 30 34 32 29 36 33 28 37 32 40 43 40 41
38 38 40 41 42 43 41 37 35 35 38 39 38 40 43 46 39 38 35 31 30 28 28 28 29 29 21 24 28 19 20 24 30 30 33 38 37 35 38 33 47 44 42 39 42
37 39 39 42 43 44 43 39 38 40 42 41 45 48 46 43 40 39 40 36 32 31 30 29 30 33 30 24 25 22 20 19 23 36 34 31 37 35 34 39 39 41 43 47 50
37 37 41 39 44 45 43 44 45 47 48 50 50 51 53 48 46 43 42 42 39 36 35 31 32 32 35 32 28 24 21 22 17 20 35 43 43 47 46 49 52 45 48 48 49
38 40 43 46 47 51 50 52 53 55 56 56 55 55 57 51 54 51 48 45 45 45 41 38 35 35 36 36 34 30 23 24 21 20 21 28 40 45 47 50 49 53 53 53 52
43 45 45 49 50 51 52 52 54 55 58 61 62 60 59 59 58 57 56 51 48 48 50 46 42 39 40 35 34 34 30 23 24 25 21 24 24 33 40 45 47 43 43 42 41
46 46 46 46 44 49 47 49 45 48 53 57 58 63 65 65 64 62 60 59 56 55 53 55 51 45 47 44 35 35 38 31 27 26 25 25 25 28 34 40 39 40 38 38 36
59 56 54 51 51 52 51 53 53 61 65 66 63 65 64 65 67 67 69 65 65 64 60 60 58 55 54 48 46 42 41 38 34 28 25 27 28 23 31 35 37 34 34 35 35
62 64 60 56 57 53 56 63 66 69 74 73 74 68 69 65 70 75 76 72 69 72 72 64 59 63 61 50 50 48 44 41 41 31 29 29 31 26 25 31 35 33 32 36 34
69 70 68 63 66 69 72 78 78 76 83 85 84 72 77 71 68 75 78 80 78 77 78 72 68 71 64 57 52 51 46 45 40 34 32 30 33 31 26 28 35 36 33 33 32
63 64 65 70 74 69 78 87 90 86 81 87 89 82 78 76 70 74 77 80 80 77 78 78 77 75 67 62 57 53 46 49 42 38 32 31 38 35 28 25 29 36 34 34 32
73 71 83 68 78 86 91 98 100 100 96 93 84 88 92 86 76 77 79 80 81 83 77 75 77 79 77 66 58 48 52 46 41 40 36 31 40 39 31 28 30 30 34 32 35
91 77 88 92 98 97 102 112 114 110 105 100 95 93 93 89 86 86 84 81 80 81 80 74 73 77 76 70 61 52 55 50 44 40 38 38 34 47 34 32 31 30 30 32 33
95 105 102 105 105 110 117 120 119 116 112 108 103 101 99 93 91 84 83 83 79 77 74 74 71 73 72 71 68 58 55 52 45 42 38 43 34 49 40 35 31 32 30 32 33
96 107 109 115 114 121 127 125 126 121 119 116 118 112 103 97 93 86 82 83 80 79 70 64 72 69 72 70 68 62 59 56 54 46 41 43 38 48 44 39 34 30 32 33 34
105 111 116 117 123 131 135 129 125 121 120 121 119 112 104 97 91 85 80 80 78 78 75 75 68 65 64 64 66 65 65 63 55 49 46 45 40 47 46 42 39 33 30 34 35
121 127 129 127 131 132 132 129 129 124 122 117 112 107 100 96 89 86 83 79 79 80 80 76 70 66 70 69 67 65 64 64 60 51 48 46 45 51 47 44 43 37 32 33 36
131 134 132 134 135 135 133 131 125 117 113 110 106 101 96 92 93 85 84 83 83 81 82 79 77 71 72 73 70 67 69 66 61 53 50 52 50 54 48 46 45 42 34 30 33
133 134 135 135 134 130 126 122 112 108 104 103 100 96 93 90 91 89 84 83 85 83 83 82 85 81 80 76 74 74 73 68 64 57 53 55 54 56 52 48 47 45 42 33 29
136 132 136 135 125 113 111 104 102 99 100 100 96 94 89 89 87 87 84 85 82 83 85 86 85 86 83 81 80 80 77 75 69 59 57 55 56 57 54 51 49 48 44 41 31
133 134 133 113 106 106 103 96 97 95 94 97 95 89 87 84 85 82 80 80 83 82 83 90 84 87 88 86 85 85 80 77 75 69 59 54 56 61 59 57 54 49 46 44 40
136 124 113 104 101 105 102 97 97 93 89 88 87 85 81 79 79 72 74 77 80 81 81 84 85 88 92 92 89 90 85 77 74 72 60 49 63 63 64 60 58 50 45 43 42
126 116 106 102 99 104 102 99 92 89 85 79 78 77 79 72 72 67 68 71 74 76 79 80 82 89 92 97 94 90 90 86 77 71 64 60 62 73 70 69 61 52 49 47 43
119 114 105 101 98 101 102 95 85 83 76 74 73 73 73 69 67 67 65 65 68 71 75 77 80 86 86 94 99 97 90 84 82 71 66 68 64 65 70 67 63 58 54 50 45
116 112 100 93 91 94 95 85 79 74 70 65 68 65 65 70 65 61 62 61 63 66 69 75 78 81 86 89 99 96 80 87 81 79 70 71 69 73 65 65 64 61 57 51 50

GFSSW_250_spd_156.txt.gz
Wind_Speed
35 36 35 34 36 36 36 36 36 35 31 30 31 35 38 40 41 42 40 32 27 22 22 22 22 22 22 23 27 28 25 28 31 33 36 33 38 41 42 48 48 51 47 45 43
38 37 36 36 34 36 35 38 39 38 36 35 36 38 38 42 42 43 41 35 31 29 27 23 23 23 24 25 23 28 23 27 34 34 33 33 35 32 32 31 38 42 42 41 42
38 38 39 37 36 35 37 36 36 39 36 36 37 38 41 40 42 44 43 37 34 31 30 28 24 23 25 26 27 28 25 22 19 28 35 34 32 31 34 34 40 39 38 37 40
35 36 37 35 34 34 36 36 37 39 42 42 46 47 49 50 45 47 41 42 38 36 33 32 31 28 25 25 27 28 28 23 22 20 24 24 32 29 30 31 37 36 31 39 38
34 32 32 34 34 35 36 37 40 43 45 46 46 47 51 54 53 52 50 45 45 42 38 38 36 34 31 31 31 29 29 27 27 20 19 29 30 36 36 33 39 41 39 35 37
38 38 36 37 38 39 41 40 41 43 44 45 43 42 43 45 50 49 49 50 51 48 45 45 41 40 38 33 35 32 27 27 29 28 20 19 22 38 31 33 41 42 39 38 47
44 43 44 45 46 48 48 48 48 43 44 43 43 46 50 55 56 53 52 51 49 53 51 48 49 42 44 41 38 36 36 29 30 31 29 23 18 16 23 40 42 42 46 45 45
50 50 50 52 54 56 53 53 50 47 43 42 41 49 58 62 61 61 61 55 50 52 54 54 53 54 53 47 49 43 40 38 31 33 31 28 28 21 19 20 29 40 49 52 52
54 57 58 60 61 60 61 60 59 58 58 50 50 52 56 65 69 69 70 62 56 54 55 55 57 60 60 54 53 50 43 45 42 38 33 29 37 22 24 21 22 27 31 38 43
60 58 63 66 71 69 68 64 61 63 62 57 58 66 67 71 79 79 73 70 61 58 58 62 60 59 64 64 58 55 51 49 46 45 37 33 38 24 25 23 23 27 30 34 36
55 58 53 52 56 59 62 61 57 58 66 69 71 74 79 79 86 88 84 75 68 64 61 61 64 69 69 66 66 65 59 56 52 48 40 36 38 36 25 28 25 25 27 30 33
68 62 62 61 68 76 73 69 71 66 64 75 73 78 80 83 92 91 89 83 76 71 70 62 59 68 76 70 68 68 67 64 60 52 39 39 39 36 31 27 28 26 29 28 33
76 75 79 80 81 85 84 88 86 94 78 85 93 92 92 96 96 97 90 89 83 78 76 73 64 70 69 72 72 72 71 69 60 52 44 40 41 39 37 30 29 27 30 29 29
83 89 94 90 90 93 91 95 98 98 94 92 93 95 98 105 101 99 96 91 89 86 82 76 68 69 71 70 72 74 72 70 61 55 47 42 44 45 39 34 31 31 30 30 29
96 94 96 100 101 97 100 104 105 107 104 103 103 102 102 105 102 103 100 98 94 90 87 77 73 71 68 69 71 66 67 64 57 59 50 44 39 59 41 36 34 35 32 32 29
108 106 101 112 110 104 110 115 116 116 115 115 111 107 103 106 104 104 100 100 98 93 87 79 75 70 68 67 67 64 58 61 59 57 45 50 37 58 48 44 39 38 36 34 33
113 113 112 118 115 113 118 126 126 122 124 116 114 110 108 110 108 106 100 97 96 96 89 82 76 68 65 67 67 65 59 59 56 52 44 52 42 55 54 51 42 41 41 37 34
116 119 123 126 124 125 128 129 126 122 121 120 117 115 111 110 108 105 102 100 97 89 83 76 69 69 64 65 70 69 65 65 61 52 49 50 47 57 57 55 48 44 41 41 37
125 127 129 130 133 133 134 134 132 123 125 122 114 111 107 110 107 102 101 100 94 87 74 70 63 63 64 65 71 69 68 71 64 58 53 51 50 61 66 59 54 48 44 41 40
130 132 135 133 138 138 141 136 130 128 121 114 105 102 101 100 100 99 97 92 89 86 78 67 65 64 67 73 74 70 73 73 67 63 56 55 59 63 66 65 58 50 45 42 41
138 137 140 142 136 140 133 121 118 117 113 105 99 96 96 93 92 90 87 89 87 85 81 72 65 69 69 70 75 80 75 74 76 70 60 60 62 67 64 62 61 53 48 45 43
149 146 146 142 137 123 113 107 107 109 108 101 93 93 92 91 86 85 81 84 86 84 83 77 68 70 69 78 80 82 86 82 76 69 66 64 65 67 65 63 63 58 54 49 45
156 152 146 131 124 113 105 101 101 103 100 95 91 92 90 87 84 81 77 77 81 80 78 75 69 70 73 79 83 90 89 90 80 79 68 66 61 68 66 61 63 63 59 52 46
150 141 127 117 111 107 101 98 101 103 96 92 88 86 85 84 80 70 70 68 74 72 70 71 68 69 75 83 86 96 95 93 88 79 73 70 69 65 67 65 60 67 65 57 50
128 121 116 114 106 102 98 96 98 100 95 92 86 82 80 77 73 70 67 68 69 68 69 67 63 67 73 81 88 90 94 95 93 84 79 75 72 70 69 70 68 64 67 60 56
118 114 110 111 106 102 98 95 98 97 89 89 83 78 73 71 74 70 63 61 63 66 64 64 59 67 73 79 87 90 91 94 95 94 84 80 75 76 77 74 69 66 66 63 59
118 114 108 106 105 100 97 93 95 88 85 79 76 72 71 72 62 62 61 58 54 57 61 63 63 67 71 77 82 85 84 93 94 95 92 85 81 83 78 79 73 66 65 65 63

GFSSW_250_spd_159.txt.gz
Wind_Speed
37 37 37 35 34 33 34 34 33 34 33 29 29 31 30 29 30 28 34 37 38 35 28 25 21 20 20 20 19 17 18 21 21 22 27 36 40 40 39 38 44 65 66 58 56
35 36 37 37 38 37 37 35 35 37 31 30 30 33 35 37 34 35 31 31 34 35 34 30 26 24 20 21 22 21 19 17 20 21 22 27 34 35 31 29 34 41 49 60 61
34 35 37 38 40 40 36 37 38 37 36 35 36 37 38 39 38 37 38 38 34 38 38 35 36 31 27 26 25 25 24 20 18 19 22 23 25 36 34 31 26 35 36 41 37
36 37 36 39 39 42 43 43 40 39 40 43 41 41 44 40 35 34 31 31 32 34 34 40 35 37 35 30 31 27 26 28 23 20 20 22 23 23 30 30 26 33 36 40 37
39 39 41 41 43 45 43 43 44 45 49 49 50 51 50 42 39 38 37 36 35 36 35 37 43 39 37 36 35 33 30 29 27 26 22 20 20 23 22 28 32 28 37 39 43
38 38 40 44 47 45 46 48 49 50 53 53 52 50 49 46 43 39 41 43 42 46 45 42 41 46 45 39 40 37 31 33 33 29 32 22 21 22 18 24 33 34 33 40 42
43 45 46 49 48 50 50 51 53 53 56 57 59 58 61 63 63 56 47 48 52 53 48 50 52 44 50 48 45 47 45 40 36 36 35 31 32 24 22 24 23 34 38 37 42
45 45 46 44 48 47 50 54 54 47 51 48 55 55 59 64 67 63 61 62 59 62 60 57 55 50 47 50 53 53 54 48 37 37 40 35 39 26 26 25 21 20 22 36 44
46 48 48 50 53 48 51 55 45 56 59 56 51 50 63 65 65 61 64 67 67 63 64 63 61 54 51 53 51 55 58 59 51 47 45 36 41 36 29 30 25 22 21 23 32
56 52 55 55 49 56 59 64 69 63 65 70 68 72 66 70 73 77 74 80 64 66 69 69 64 61 62 56 54 53 56 62 62 57 49 43 41 42 33 34 28 25 24 22 23
64 65 64 69 65 70 71 73 72 74 82 77 79 81 79 81 81 87 84 81 83 79 74 72 68 69 70 62 56 56 59 65 68 63 57 50 46 44 39 35 34 29 28 26 25
71 74 66 68 69 69 81 83 80 82 84 87 87 87 88 90 87 90 92 92 88 88 83 78 72 73 71 70 67 60 59 63 69 70 59 54 46 50 46 37 36 33 31 28 27
81 82 80 81 78 74 81 82 86 90 91 92 95 97 95 100 95 94 95 98 97 93 90 84 78 77 74 75 74 68 62 63 67 69 66 54 45 51 51 44 38 37 35 31 28
86 86 87 86 83 84 87 93 93 98 98 99 97 102 105 103 104 100 101 102 99 95 95 90 87 84 81 77 78 72 70 62 65 66 67 60 46 53 54 49 40 43 40 34 32
94 90 91 88 89 93 89 100 103 109 110 107 107 105 107 108 108 106 108 106 102 99 100 96 91 92 86 81 82 75 72 66 62 67 64 57 48 55 61 54 45 44 43 40 35
97 96 97 98 99 103 103 105 112 118 118 121 119 115 112 109 111 111 109 105 105 106 105 101 99 93 89 86 80 76 72 67 63 64 62 54 50 50 64 52 47 47 45 42 38
101 106 102 107 108 110 111 111 122 127 130 129 129 125 117 112 111 108 108 105 107 108 108 105 99 94 88 85 79 73 69 65 64 59 57 56 56 52 59 54 51 52 49 47 41
105 110 111 111 115 117 121 125 134 135 137 135 127 123 119 118 112 105 107 106 108 106 103 98 89 88 82 75 76 68 64 62 60 52 55 58 59 58 55 54 51 53 53 51 44
113 118 118 119 124 127 137 138 139 135 134 126 122 119 116 114 108 102 100 100 99 95 96 91 82 77 76 73 65 61 63 54 60 58 55 59 62 58 56 52 49 51 52 52 49
116 121 132 124 134 142 141 140 145 141 131 121 112 108 106 102 99 92 89 93 94 88 90 90 78 73 72 71 58 56 62 59 61 59 58 61 65 60 56 57 51 49 51 51 50
121 130 139 139 144 150 149 145 135 126 116 107 106 103 99 96 90 87 85 89 87 86 88 87 79 70 71 69 59 61 63 61 66 66 65 63 68 61 56 57 55 52 53 55 53
135 135 150 150 151 144 138 130 123 116 110 103 101 99 94 93 86 86 83 83 86 85 84 81 77 69 68 70 67 65 68 68 70 67 68 69 72 67 59 57 56 56 54 56 56
154 150 153 155 146 140 131 117 108 103 103 97 95 96 92 89 86 84 83 81 82 84 77 77 73 70 65 69 71 70 69 70 70 71 69 73 72 71 66 60 59 58 56 58 57
160 157 159 147 132 127 120 112 102 97 97 97 94 92 88 84 84 77 79 76 75 75 76 73 69 69 68 69 73 71 70 70 74 74 74 75 76 76 73 63 60 59 57 56 59
163 152 138 131 123 122 113 108 103 95 94 94 93 89 84 79 79 75 68 67 68 71 69 66 58 63 62 65 69 70 73 71 77 76 79 78 78 78 77 72 63 56 55 57 58
147 138 128 121 119 115 111 107 102 98 93 92 86 86 79 76 68 64 64 67 63 65 63 57 55 60 59 64 64 67 71 73 74 77 81 83 82 83 78 76 70 59 54 56 62
133 126 119 113 112 109 108 104 99 94 91 89 83 76 76 70 65 61 58 62 59 58 58 53 54 59 54 61 61 58 68 77 76 77 83 86 89 87 85 80 74 70 61 56 62

GFSSW_250_spd_165.txt.gz
Wind_Speed
21 20 18 19 22 25 27 29 32 33 36 38 40 38 37 36 39 39 41 41 37 36 34 32 31 33 28 31 30 27 23 23 20 19 21 23 22 23 24 32 47 56 57 62 60
18 17 18 22 26 29 31 33 36 37 40 43 43 39 38 34 34 36 38 35 35 33 32 33 30 27 29 34 30 36 34 30 28 27 26 25 26 29 24 23 23 30 43 51 56
14 17 21 25 29 31 34 36 39 41 43 42 38 37 34 32 31 30 28 30 31 32 34 39 38 40 34 36 34 38 36 38 34 34 34 33 28 31 31 28 24 27 28 40 47
20 23 24 28 30 31 34 35 38 41 41 36 32 37 35 38 32 37 33 29 30 28 33 35 34 33 39 41 41 37 32 37 40 39 38 39 40 34 32 28 28 35 27 29 36
24 26 28 28 30 31 34 34 39 39 39 37 39 45 44 40 38 38 38 38 38 36 37 38 42 46 45 43 40 44 45 44 44 43 43 46 45 43 43 31 33 37 29 28 28
28 30 31 31 32 35 34 43 39 46 51 52 48 50 52 50 46 43 38 39 40 40 44 45 52 56 50 49 49 44 40 45 50 46 47 48 47 47 48 41 40 38 35 36 31
30 31 30 35 36 36 36 38 44 49 52 52 54 59 57 55 53 49 48 46 46 48 52 56 55 56 60 61 62 56 53 52 44 50 53 55 56 55 55 51 49 45 40 36 33
33 36 40 41 40 41 43 47 51 56 59 63 64 63 61 53 54 54 50 52 58 50 54 59 64 67 63 67 67 69 65 55 54 52 47 50 56 58 58 56 53 48 45 39 36
39 42 42 44 46 46 49 53 56 60 63 69 68 68 67 64 51 51 57 59 54 59 63 66 67 69 73 75 74 76 75 68 61 57 57 51 52 57 61 60 60 53 51 50 42
46 49 52 54 56 57 61 64 68 69 71 76 73 74 73 70 66 61 62 60 61 62 65 69 72 72 76 80 80 86 83 75 71 67 61 59 53 57 62 63 63 61 56 52 50
51 54 56 59 62 67 70 69 72 73 75 77 78 79 73 72 68 73 71 70 69 73 74 73 73 76 79 81 83 93 93 87 76 75 66 66 64 58 59 62 61 66 58 55 53
58 61 63 67 70 73 74 75 76 73 73 79 80 75 82 77 79 85 87 85 83 80 80 82 80 85 84 87 92 98 100 88 81 80 75 74 74 66 64 64 65 63 66 53 54
68 69 70 71 72 71 71 74 76 81 74 81 83 87 90 92 102 101 95 92 91 86 89 87 91 94 98 97 101 107 104 93 87 88 81 79 76 76 72 66 69 66 64 58 56
74 75 77 76 79 82 83 86 81 83 90 90 91 90 97 104 107 108 107 102 100 99 98 97 100 105 104 105 111 103 98 91 89 89 85 85 77 79 77 75 70 69 66 61 56
79 81 83 85 85 82 85 88 90 89 97 94 96 102 108 111 112 113 107 107 110 108 107 107 109 111 107 106 102 92 89 85 86 89 90 86 83 74 75 73 73 66 65 66 56
87 90 92 94 93 94 95 88 88 98 106 107 107 112 112 115 117 117 114 114 116 114 112 111 113 110 106 100 93 89 84 84 84 82 77 80 84 68 69 67 73 70 62 66 59
94 99 99 99 93 94 93 91 103 104 105 111 115 117 119 120 122 120 118 117 117 116 113 111 106 103 99 96 92 85 80 79 75 74 65 77 72 59 66 63 70 70 63 66 64
102 106 106 100 99 102 99 103 104 116 113 118 122 127 127 124 124 122 121 119 120 112 107 105 93 88 92 89 86 82 80 77 73 70 65 64 53 56 57 60 64 67 62 65 65
105 109 103 103 108 110 108 111 111 121 122 127 130 132 127 119 120 120 116 114 111 103 97 96 83 76 85 89 77 73 78 71 75 59 56 50 46 53 53 57 60 61 61 65 63
116 123 120 117 117 122 120 124 125 126 128 132 134 131 123 123 117 113 105 103 98 92 89 91 80 70 75 86 75 76 76 75 66 54 53 47 49 49 47 55 56 59 59 62 62
124 129 130 126 126 133 131 136 130 132 134 134 131 129 126 119 113 106 99 101 94 87 84 89 81 58 75 76 80 76 75 73 65 51 50 43 46 49 49 55 59 61 61 63 64
132 133 134 131 131 139 138 138 139 136 130 126 127 123 121 117 111 111 109 103 94 86 82 81 72 60 64 72 78 78 73 70 69 49 46 48 47 47 48 57 60 63 65 64 67
133 138 142 140 140 143 140 140 138 133 129 125 116 113 113 113 108 104 101 100 92 85 75 70 67 55 54 64 70 73 66 65 62 54 47 49 49 47 53 62 60 62 64 67 65
139 146 144 141 148 139 134 134 132 128 124 118 114 112 110 106 102 96 95 93 85 79 72 67 61 58 50 58 68 60 61 59 58 55 51 52 55 52 56 60 63 66 68 67 66
146 150 153 145 141 132 128 128 126 121 117 114 112 109 104 100 96 93 90 87 77 70 65 59 56 54 50 53 60 58 59 55 54 53 55 56 56 56 56 62 68 68 67 62 67
147 144 148 142 135 130 124 121 118 116 114 113 109 102 97 95 90 86 85 80 68 64 59 54 49 47 45 50 55 52 57 54 54 55 57 63 61 61 63 67 74 75 71 63 63
143 141 136 131 129 123 119 120 117 113 111 109 104 98 92 90 83 78 74 71 64 60 53 48 46 44 42 47 49 46 56 53 57 60 60 59 59 60 65 73 79 80 74 65 64

GFSSW_250_spd_171.txt.gz
Wind_Speed
17 16 13 10 8 11 15 15 16 17 20 24 26 27 28 29 30 33 33 34 35 36 37 36 31 28 21 17 17 19 15 25 27 29 28 29 27 27 28 35 35 32 29 32 40
18 14 11 10 14 15 16 16 16 19 22 23 23 26 27 32 36 37 39 40 41 38 37 40 40 38 35 29 25 20 20 21 24 30 33 30 35 34 35 32 33 37 37 38 41
13 12 11 13 15 15 15 17 21 24 27 29 29 30 33 38 42 42 41 42 41 39 41 41 37 42 40 45 39 33 34 29 21 28 33 31 39 39 38 45 39 41 41 40 43
14 14 15 16 17 17 17 21 25 24 26 30 32 33 39 42 43 46 45 43 42 40 40 38 39 41 44 45 45 39 30 25 29 29 27 31 37 37 41 48 48 47 49 46 46
20 19 19 18 19 21 23 26 30 29 31 33 36 39 44 44 45 46 43 44 44 44 44 42 41 41 31 36 36 40 41 43 40 35 34 33 31 34 43 50 52 49 48 53 51
23 23 22 22 24 26 28 31 31 33 37 39 41 44 47 46 46 47 48 46 48 48 48 44 40 32 45 45 44 44 44 48 48 51 41 39 42 39 50 44 43 45 55 46 51
27 27 28 29 31 33 34 35 40 41 43 45 47 49 51 53 52 52 54 57 56 56 56 58 58 54 53 51 53 53 53 61 58 51 50 48 43 50 52 49 49 51 48 44 49
32 33 34 36 38 39 41 43 44 45 49 49 49 52 54 57 60 63 64 65 69 68 69 67 55 55 58 58 60 62 62 62 68 66 59 55 49 60 55 54 55 56 57 55 48
37 39 41 43 45 47 47 49 52 56 54 55 56 60 62 64 67 67 68 67 69 70 70 67 64 66 74 75 69 73 67 71 70 74 71 65 57 61 63 61 60 60 60 61 63
43 45 47 47 49 53 54 56 58 60 60 62 62 63 63 63 66 65 64 66 66 67 69 75 71 77 74 79 77 82 81 77 77 83 79 74 69 66 71 67 67 70 69 66 67
49 49 49 51 53 56 58 59 60 61 65 62 62 61 62 66 70 70 69 73 74 69 75 77 77 80 89 87 88 90 86 87 89 92 90 86 80 79 74 77 80 72 74 77 69
52 53 54 55 57 59 58 61 60 59 63 65 64 71 75 77 76 77 83 83 84 86 84 85 85 90 91 94 96 97 98 99 97 100 104 97 83 79 77 76 80 83 78 77 78
55 58 59 61 65 67 71 72 71 72 71 72 76 78 78 81 79 80 84 86 91 89 92 93 95 101 101 100 100 103 107 107 106 104 101 98 84 85 83 81 79 82 82 83 81
65 68 70 72 73 77 75 77 80 80 81 80 85 88 87 87 87 85 88 93 95 97 98 100 106 107 109 109 111 106 111 112 109 102 94 97 88 82 79 77 76 77 79 80 81
75 75 75 80 81 84 84 88 87 88 88 89 90 93 95 95 94 92 94 98 100 101 103 108 113 119 117 116 116 109 112 109 102 97 91 86 90 71 76 70 68 71 68 72 75
81 80 82 85 88 91 93 91 92 94 97 98 98 101 101 100 98 104 108 108 109 109 109 113 119 127 123 116 114 111 108 100 94 89 80 72 85 64 61 60 59 60 61 65 70
85 86 87 87 91 94 97 99 98 97 107 103 107 108 110 107 108 113 116 112 116 119 119 122 123 130 123 115 112 108 103 97 91 83 71 70 78 57 61 57 60 58 57 60 64
90 91 99 108 109 104 106 101 99 107 112 115 113 116 117 116 111 116 119 117 123 124 126 124 124 122 116 115 108 103 98 94 90 77 74 71 62 52 57 58 57 60 55 58 63
96 101 102 108 111 107 110 106 109 108 108 114 122 125 123 114 117 120 122 122 129 134 131 129 114 111 105 104 101 91 90 90 91 77 73 63 56 48 53 56 53 53 56 61 65
115 115 109 113 114 116 114 110 113 110 115 116 118 125 127 126 121 122 128 134 134 131 130 119 111 100 92 93 95 94 88 85 86 75 68 63 52 55 45 52 48 51 52 56 65
116 116 115 120 121 123 119 117 119 115 118 122 126 130 124 125 128 134 137 135 132 127 123 116 105 86 82 84 86 87 89 84 74 73 64 54 55 48 44 50 48 46 50 59 65
118 121 120 125 125 121 118 122 122 118 124 126 131 131 127 131 132 132 130 129 126 123 118 104 92 80 77 76 76 76 77 82 79 66 60 52 49 48 45 49 49 41 49 53 55
120 123 126 122 122 119 124 127 126 121 124 127 127 127 130 130 128 127 125 122 116 112 105 96 89 79 66 71 72 66 69 70 72 71 54 50 42 46 45 54 50 44 49 55 52
125 124 124 124 123 123 129 124 124 124 126 126 126 129 128 125 123 119 117 111 105 103 100 94 89 80 68 64 65 63 62 61 64 61 47 43 42 47 47 56 49 47 51 53 48
126 127 127 130 127 123 129 127 125 126 125 125 127 123 120 117 114 110 106 102 104 102 98 90 86 75 72 59 56 56 56 60 60 54 38 46 42 45 48 55 46 45 45 51 48
125 129 133 127 136 128 127 127 127 127 125 123 120 119 114 112 109 106 105 103 105 100 96 90 80 71 66 55 51 54 58 54 47 46 36 40 43 49 51 51 50 50 49 51 50
129 131 131 132 126 131 128 124 125 120 118 118 117 113 111 110 108 106 104 102 100 92 85 83 73 64 60 50 48 54 48 48 44 41 33 39 46 47 49 50 52 53 51 54 51

GFSSW_250_spd_174.txt.gz
Wind_Speed
16 17 18 15 13 10 10 11 10 12 15 18 20 20 22 23 27 33 33 34 36 35 33 33 32 31 28 33 32 35 27 26 25 24 28 29 26 27 30 32 31 27 32 37 37
18 17 14 12 11 10 10 10 10 13 17 19 19 21 26 28 31 34 36 36 36 37 37 36 32 33 35 30 26 32 35 30 29 33 27 31 35 33 33 37 36 36 35 37 38
16 14 13 13 14 13 14 14 13 16 20 20 23 25 28 31 34 37 39 39 39 39 39 40 43 40 35 37 32 25 27 29 31 35 38 36 35 43 36 40 40 42 42 46 47
16 15 16 17 17 16 14 15 18 21 23 24 26 29 31 34 37 39 41 43 42 42 46 48 50 49 44 48 27 37 31 31 33 27 33 36 41 40 46 52 47 45 44 39 50
17 19 20 20 19 19 20 22 25 26 28 28 32 36 38 42 43 44 44 45 45 47 49 48 49 50 51 51 38 42 40 42 45 43 38 39 39 42 46 51 53 53 53 55 49
24 24 21 23 24 25 27 28 31 32 33 36 37 39 44 48 47 48 49 50 51 51 49 51 50 45 50 52 46 43 44 51 55 52 51 51 49 50 53 50 53 55 58 56 60
28 28 29 28 29 31 33 36 38 39 41 44 47 48 49 48 52 54 54 51 51 51 48 47 46 46 47 50 51 51 50 57 62 59 58 59 57 60 60 57 52 61 59 60 57
32 33 33 34 35 36 38 41 43 45 47 49 52 52 53 54 55 54 55 56 57 56 57 56 57 59 58 60 61 57 57 56 68 66 64 63 58 65 66 65 65 60 67 69 66
37 37 37 37 41 43 44 44 46 49 51 51 53 54 57 59 58 56 59 60 62 64 63 63 64 67 70 72 68 68 64 68 71 77 75 76 70 71 72 69 71 74 71 68 73
40 41 42 42 45 47 49 50 51 54 56 57 57 59 61 62 63 65 65 67 69 70 72 77 72 72 76 75 74 76 76 76 80 86 85 84 78 76 75 78 79 81 83 77 73
46 47 47 49 53 54 53 54 55 60 63 62 62 66 69 72 74 75 73 73 76 77 81 84 82 86 88 88 86 87 88 87 88 94 96 97 87 81 85 84 86 88 86 83 80
49 50 52 53 55 57 57 62 66 67 69 70 74 73 77 81 81 80 83 85 85 86 85 85 86 92 94 94 95 100 100 98 95 99 104 100 93 93 89 87 86 89 84 81 77
53 54 59 64 67 69 67 69 71 74 70 74 76 79 81 82 87 87 86 86 88 90 93 92 92 93 97 101 105 102 104 104 103 107 108 110 97 91 90 89 88 82 77 76 74
58 62 66 68 73 77 78 77 76 78 77 79 87 92 90 92 94 90 93 96 100 99 99 101 103 104 109 107 109 105 114 112 114 117 111 109 94 87 90 89 81 77 72 72 70
65 65 66 69 72 76 82 81 85 84 80 82 88 94 98 99 96 95 99 101 102 103 105 109 112 114 111 112 114 113 115 117 120 118 107 97 96 74 77 78 73 71 65 64 61
69 68 70 78 84 85 88 92 96 96 97 97 101 102 102 100 97 99 105 103 104 105 104 107 113 113 114 118 120 116 116 121 120 113 97 95 91 60 69 66 67 66 62 61 57
79 75 82 89 95 98 100 101 100 100 106 106 110 112 114 108 108 109 109 107 108 103 107 110 114 122 122 119 120 122 124 123 118 108 95 85 78 59 63 62 59 61 63 63 57
87 94 95 100 105 106 103 107 109 109 112 116 115 115 115 115 118 118 120 113 110 111 108 113 118 121 125 126 122 123 121 118 109 98 89 82 69 66 63 61 60 57 60 65 58
98 97 99 108 114 118 116 112 106 110 113 118 114 115 118 119 120 121 119 115 113 114 115 113 114 118 125 122 124 118 111 107 99 87 83 75 71 69 63 58 56 57 56 62 62
104 104 111 121 118 115 114 109 106 107 111 112 115 116 114 118 121 121 118 117 117 117 120 119 118 119 120 123 117 108 100 95 93 84 78 66 66 65 61 56 51 56 56 61 57
114 122 117 120 119 119 112 107 109 104 110 115 122 124 118 119 122 126 124 123 127 122 118 117 116 112 114 112 107 97 92 90 86 86 76 61 54 54 57 54 48 51 51 57 57
123 126 130 129 126 117 111 111 112 111 112 116 120 124 124 124 123 126 125 122 123 122 118 114 108 103 101 104 96 89 86 85 82 76 67 60 47 43 53 54 52 51 52 57 58
130 140 143 135 121 113 113 115 115 111 116 117 119 122 122 122 125 124 120 121 120 120 113 106 101 98 95 92 89 84 80 73 72 68 62 59 38 45 47 49 51 53 50 56 55
144 153 148 137 122 116 116 117 114 111 113 115 119 122 124 122 122 126 122 118 113 107 103 98 96 95 89 83 82 80 75 69 59 56 52 46 41 43 43 47 51 52 53 51 55
153 143 136 135 122 120 111 118 116 114 112 111 113 115 119 115 115 114 112 107 103 102 101 98 95 91 86 78 76 74 64 61 49 48 44 48 37 43 39 46 50 51 56 47 55
146 137 134 126 123 114 112 113 118 118 115 110 110 110 109 104 106 108 104 101 102 101 98 94 91 84 80 75 71 65 57 49 47 40 41 41 37 44 40 39 48 53 46 48 53
134 129 123 117 113 111 112 111 110 111 110 110 108 108 109 107 107 103 100 98 96 95 92 89 84 76 74 72 65 55 48 43 41 40 37 36 39 37 40 43 44 43 42 48 51

GFSSW_250_spd_177.txt.gz
Wind_Speed
19 19 19 18 17 15 14 14 13 12 12 13 16 17 18 21 24 26 29 32 35 35 35 37 38 39 38 38 36 38 34 26 37 29 22 19 20 22 24 26 29 32 34 37 38
19 20 16 16 14 14 16 15 16 15 13 16 19 21 22 23 26 29 33 36 37 37 36 35 36 39 40 41 36 41 35 31 38 32 30 27 25 25 24 28 27 38 40 38 39
19 16 14 14 15 17 17 17 16 17 20 21 22 24 26 28 31 33 37 39 38 36 37 37 39 40 40 37 36 38 34 31 39 36 31 33 32 27 30 44 35 30 42 49 47
18 16 15 16 19 21 20 20 20 22 24 27 27 28 29 34 35 36 41 40 40 43 42 41 42 41 37 36 34 36 35 33 41 39 35 32 35 37 40 55 45 38 39 45 54
19 19 20 22 23 24 24 24 24 26 28 31 33 34 36 40 41 42 43 43 45 47 47 46 44 39 40 42 40 40 39 37 39 42 40 41 42 43 50 51 47 53 50 46 53
22 25 27 28 26 27 27 26 28 31 34 37 39 40 44 47 48 48 48 49 50 51 51 49 48 47 48 51 48 48 50 51 54 54 46 45 43 42 55 50 45 47 54 56 57
29 31 30 30 31 32 31 33 32 35 39 41 44 46 48 51 52 53 53 54 57 57 56 58 56 55 57 63 62 58 62 62 64 64 57 54 52 58 60 56 55 58 58 59 61
30 31 33 35 35 33 34 35 38 41 43 46 48 50 51 55 57 59 58 60 60 59 62 63 64 65 65 68 66 64 66 68 71 72 69 67 65 67 71 68 68 70 71 70 67
33 35 37 38 38 38 41 41 43 46 50 51 51 53 56 61 62 62 63 66 67 68 70 71 72 76 80 81 74 74 75 72 71 78 77 76 72 75 80 77 73 76 81 78 79
35 37 37 38 40 43 45 45 49 52 52 55 58 62 64 66 68 67 66 67 68 74 76 78 79 80 83 82 80 83 85 84 86 88 87 83 81 83 87 88 87 90 89 88 86
35 36 37 41 44 45 48 49 53 59 60 63 66 73 74 74 73 80 80 79 80 77 83 88 89 87 89 89 89 91 92 91 92 96 94 94 92 91 92 92 93 96 98 96 95
38 39 42 45 47 48 51 56 57 56 60 60 66 71 77 80 80 82 84 84 86 90 97 94 92 97 97 95 95 97 98 99 98 102 99 97 93 98 97 96 100 101 98 100 92
44 46 48 49 51 51 54 58 59 60 62 71 76 78 82 86 88 90 92 94 95 97 100 101 103 105 107 105 105 105 105 105 105 105 104 105 97 99 103 102 105 101 96 93 87
48 49 52 52 55 55 61 58 61 70 68 77 79 86 98 100 97 99 100 101 104 107 107 108 109 110 115 114 113 112 117 113 112 110 107 112 108 104 107 105 106 97 90 80 79
54 55 59 60 63 67 69 71 77 79 81 81 85 96 93 97 103 101 103 106 108 108 111 116 116 115 116 120 121 118 121 121 117 116 111 106 115 101 96 97 101 91 77 72 68
61 63 64 69 73 71 72 74 82 86 85 88 91 96 102 103 102 102 103 105 108 112 114 114 114 115 119 122 124 121 120 120 117 114 108 104 104 93 94 88 82 79 71 61 61
69 71 76 79 80 79 83 87 84 86 100 103 104 112 109 117 112 108 106 109 110 111 113 115 115 115 116 119 121 124 124 122 118 117 111 104 100 93 84 79 69 64 67 58 60
79 77 83 90 93 97 98 102 97 108 115 122 118 120 120 124 117 112 110 109 110 109 113 112 115 117 118 121 122 121 122 123 121 117 109 100 90 81 75 65 64 59 60 61 62
91 91 90 99 93 98 103 99 107 116 116 122 126 125 123 130 120 114 113 110 111 114 113 115 116 118 121 123 123 122 121 121 119 114 100 85 77 74 65 64 62 63 59 62 63
101 96 89 97 100 106 110 109 113 115 118 121 127 133 133 126 123 118 118 114 112 113 114 117 119 119 123 125 124 121 119 115 111 102 91 71 67 65 66 64 64 65 60 62 60
99 97 92 103 105 107 105 110 117 117 122 128 133 136 128 125 126 119 118 117 115 114 115 115 115 114 116 118 117 112 105 99 95 89 81 71 55 54 62 68 63 65 60 59 58
102 107 106 103 112 117 114 123 124 126 128 127 127 128 127 125 126 119 115 115 115 114 111 113 115 109 103 102 101 99 97 92 84 77 70 70 44 53 59 66 61 64 64 61 57
110 121 113 110 122 118 123 128 136 135 128 130 129 127 128 125 125 115 114 113 116 114 109 105 103 103 97 95 94 96 92 87 76 67 64 65 47 53 59 61 64 63 65 62 58
115 122 129 123 132 130 132 137 136 126 132 129 124 123 126 120 119 113 108 105 105 105 99 99 99 99 94 93 90 91 85 79 66 61 55 57 52 56 54 55 60 60 61 58 56
132 136 141 142 136 137 141 142 145 134 125 125 122 118 119 119 111 109 103 100 100 101 96 97 95 93 91 88 86 85 76 67 62 56 44 50 49 57 50 45 55 55 56 54 52
147 150 153 147 143 142 137 138 130 131 125 117 115 113 111 112 110 108 104 99 100 97 94 91 88 85 84 80 78 76 69 62 53 53 48 40 50 54 45 40 46 49 52 51 47
151 145 141 130 132 132 132 129 122 123 118 114 111 108 107 107 107 105 102 100 96 92 88 85 82 79 75 71 71 67 61 54 49 45 47 42 44 46 40 34 36 40 47 46 39

GFSSW_250_spd_180.txt.gz
Wind_Speed
24 21 19 20 19 16 15 15 17 19 18 19 18 19 20 22 24 24 27 29 31 34 33 33 36 37 38 37 36 36 37 34 32 34 33 33 31 21 26 25 20 25 27 32 37
21 20 21 18 17 15 14 16 19 19 19 20 21 21 22 23 26 28 32 33 34 37 36 37 40 41 40 39 35 38 39 36 38 36 31 32 31 26 31 37 24 25 33 31 34
20 20 17 17 14 14 16 19 22 23 24 24 25 26 28 28 30 31 34 37 39 41 42 43 44 44 45 41 41 42 40 38 41 39 31 33 32 31 33 43 32 34 38 38 39
19 19 18 17 17 19 21 24 25 25 25 27 29 29 32 33 35 37 39 41 43 43 45 44 45 48 47 47 48 48 46 45 49 46 39 39 44 39 41 54 44 37 39 41 44
17 19 20 21 23 25 26 25 26 28 28 29 30 32 36 39 42 43 44 44 47 48 51 51 52 53 51 52 51 50 51 51 52 49 48 48 47 49 56 59 52 48 45 47 46
18 21 23 26 27 28 28 30 30 30 32 30 34 37 40 44 45 45 45 48 51 53 55 55 56 55 55 56 56 55 57 59 63 62 57 53 52 54 60 60 60 58 54 61 59
20 23 26 28 29 31 33 34 33 31 34 36 38 40 45 46 47 49 53 55 58 61 59 58 62 63 62 68 69 64 65 68 73 71 69 65 57 58 61 64 66 65 66 66 69
22 23 25 26 27 29 30 33 34 36 39 40 42 44 47 52 53 55 56 56 58 63 66 69 69 71 72 75 73 74 75 78 79 78 77 74 68 71 74 72 74 75 77 80 78
26 28 29 30 30 30 31 32 34 37 39 42 45 49 53 55 56 55 61 63 62 68 71 74 75 76 79 81 79 81 83 85 85 88 89 85 77 79 79 78 80 82 83 86 85
31 33 32 32 32 33 34 36 38 40 42 45 49 51 51 52 55 60 65 66 68 74 76 79 78 81 86 86 84 88 90 90 90 93 95 94 90 87 87 87 86 88 90 92 91
34 35 35 37 38 39 40 40 41 43 46 47 52 54 58 61 63 70 71 72 75 80 84 85 85 90 94 95 95 97 97 98 100 101 100 100 95 97 99 97 97 98 95 95 94
38 40 40 40 42 42 44 44 45 45 50 50 57 62 64 66 70 74 72 76 83 86 95 92 94 98 99 102 104 104 104 106 104 107 106 104 101 101 100 104 106 103 101 96 96
46 46 47 50 48 47 46 48 50 53 53 65 66 67 70 75 76 77 82 92 98 107 105 108 106 106 105 108 106 109 113 115 113 111 112 111 103 99 98 103 106 110 105 97 92
49 54 55 54 53 54 55 57 60 60 59 64 71 77 79 81 85 89 92 101 102 106 111 110 113 115 114 113 111 109 113 115 117 117 115 115 112 102 103 106 111 110 108 100 95
56 55 55 56 57 62 64 68 68 70 71 75 81 83 87 89 94 97 99 102 107 107 109 112 112 114 114 115 115 113 115 114 114 115 116 117 123 111 107 109 109 110 106 102 93
63 64 67 68 71 72 70 75 76 81 83 83 86 87 86 88 96 99 103 106 107 109 111 114 114 116 120 121 119 116 115 114 113 112 111 113 120 111 113 112 105 101 100 101 89
70 73 76 79 83 82 82 85 81 81 88 88 87 94 94 96 97 104 104 106 114 113 116 114 115 117 122 123 123 120 120 118 114 115 111 109 107 108 108 101 94 94 92 83 73
74 75 79 84 85 87 91 89 90 88 86 90 99 98 97 105 110 110 115 116 119 122 120 120 122 126 127 127 125 124 121 119 118 111 109 107 99 98 94 88 78 74 75 69 64
84 85 86 91 92 93 94 85 91 93 100 106 110 113 110 112 114 117 112 118 117 122 122 125 125 126 127 126 126 122 118 116 116 111 101 92 89 80 74 74 68 64 68 65 59
87 88 89 92 95 88 90 95 100 102 113 117 116 116 117 118 121 117 119 120 120 125 128 131 130 126 126 123 121 119 114 110 107 104 95 82 74 68 70 70 71 69 67 68 59
96 97 97 99 94 95 103 99 110 113 129 129 123 123 122 120 118 118 123 122 122 125 130 130 127 124 123 119 113 110 107 104 96 88 89 80 66 59 66 70 74 67 72 65 62
102 93 92 91 99 103 111 114 121 121 131 133 129 125 123 125 124 122 122 127 129 130 129 130 126 122 116 112 104 100 96 97 92 85 82 76 56 58 63 69 70 68 65 70 67
94 100 96 102 109 111 127 124 130 135 136 133 131 129 129 126 127 125 126 130 132 132 125 124 119 112 109 106 99 94 93 91 84 80 77 71 56 60 62 65 68 64 64 67 63
95 101 110 121 123 129 139 137 140 140 141 129 128 128 128 126 125 125 125 127 129 124 120 109 107 106 102 97 91 89 87 83 79 75 67 67 55 62 63 56 60 60 55 64 60
116 119 131 123 132 142 141 146 139 140 136 129 125 130 130 127 125 119 122 122 117 113 108 104 100 99 96 93 87 81 78 77 76 67 60 60 58 58 55 58 56 47 48 58 55
121 128 140 140 143 151 146 136 127 128 123 121 124 128 123 122 123 119 112 108 110 107 102 100 97 92 89 87 79 75 75 75 65 59 55 53 53 47 52 53 51 38 48 48 44
144 140 147 144 153 154 143 139 130 127 122 118 120 120 116 113 111 110 107 105 104 101 98 95 89 83 81 77 71 70 71 65 56 56 51 48 48 42 44 47 40 36 41 37 36